| time (UTC) | temp C | wind direction | speed KPH | gust KPH | rain 1hr cm | rain 24hr cm | rain mn cm | humidity % | barometer mb |
| 20260510130013 | 1 | 316 | 4.8 | 16.1 | 0.00 | 0.00 | 0.00 | 88 | 1019.2 |
| 20260510124508 | 1 | 346 | 4.8 | 14.5 | 0.00 | 0.00 | 0.00 | 88 | 1018.9 |
| 20260510123110 | 1 | 307 | 6.4 | 20.9 | 0.00 | 0.00 | 0.00 | 89 | 1018.7 |
| 20260510121559 | 1 | 313 | 3.2 | 17.7 | 0.00 | 0.00 | 0.00 | 91 | 1018.6 |
| 20260510120055 | 0 | 289 | 4.8 | 9.7 | 0.00 | 0.00 | 0.00 | 93 | 1018.2 |
| 20260510114553 | 0 | 303 | 3.2 | 8.0 | 0.00 | 0.00 | 0.00 | 93 | 1018.2 |
| 20260510113100 | 0 | 343 | 3.2 | 8.0 | 0.00 | 0.00 | 0.00 | 93 | 1017.8 |
| 20260510111603 | 0 | 290 | 1.6 | 11.3 | 0.00 | 0.00 | 0.00 | 94 | 1017.7 |
| 20260510110045 | 0 | 325 | 3.2 | 9.7 | 0.00 | 0.00 | 0.00 | 94 | 1017.5 |
| 20260510104600 | 0 | 292 | 1.6 | 11.3 | 0.00 | 0.00 | 0.00 | 94 | 1017.2 |
| 20260510103043 | 0 | 338 | 1.6 | 6.4 | 0.00 | 0.00 | 0.00 | 94 | 1016.9 |
| 20260510101540 | 0 | 287 | 3.2 | 11.3 | 0.00 | 0.00 | 0.00 | 94 | 1016.9 |
| 20260510100040 | 0 | 299 | 1.6 | 9.7 | 0.00 | 0.00 | 0.00 | 94 | 1016.6 |
| 20260510094636 | 0 | 294 | 3.2 | 6.4 | 0.00 | 0.00 | 0.00 | 94 | 1016.6 |
| 20260510093036 | 0 | 325 | 1.6 | 11.3 | 0.00 | 0.00 | 0.00 | 94 | 1016.4 |
| 20260510091549 | 0 | 298 | 1.6 | 4.8 | 0.00 | 0.00 | 0.00 | 94 | 1016.2 |
| 20260510090033 | 0 | 302 | 3.2 | 11.3 | 0.00 | 0.00 | 0.00 | 94 | 1016.0 |
| 20260510084531 | 0 | 337 | 1.6 | 6.4 | 0.00 | 0.00 | 0.00 | 94 | 1015.8 |
| 20260510083029 | 0 | 301 | 1.6 | 6.4 | 0.00 | 0.00 | 0.00 | 93 | 1015.7 |
| 20260510081536 | 0 | 268 | 1.6 | 11.3 | 0.00 | 0.00 | 0.00 | 93 | 1015.7 |
| 20260510080028 | 0 | 286 | 1.6 | 8.0 | 0.00 | 0.00 | 0.00 | 93 | 1015.5 |
| 20260510074530 | 0 | 284 | 1.6 | 6.4 | 0.00 | 0.00 | 0.00 | 93 | 1015.4 |
| 20260510073035 | 0 | 276 | 3.2 | 9.7 | 0.00 | 0.00 | 0.00 | 93 | 1015.3 |
| 20260510071534 | 0 | 291 | 3.2 | 9.7 | 0.00 | 0.00 | 0.00 | 93 | 1015.4 |
| 20260510070027 | 0 | 287 | 1.6 | 6.4 | 0.00 | 0.00 | 0.00 | 93 | 1015.2 |
| 20260510064546 | 0 | 276 | 4.8 | 9.7 | 0.00 | 0.00 | 0.00 | 93 | 1015.1 |
| 20260510063028 | 0 | 260 | 6.4 | 16.1 | 0.00 | 0.00 | 0.00 | 93 | 1015.0 |
| 20260510061533 | 0 | 275 | 3.2 | 9.7 | 0.00 | 0.00 | 0.00 | 94 | 1015.0 |
| 20260510060031 | 0 | 294 | 0.0 | 6.4 | 0.00 | 0.00 | 0.00 | 94 | 1014.9 |
| 20260510054521 | 0 | 250 | 3.2 | 4.8 | 0.00 | 0.00 | 0.00 | 94 | 1014.7 |
| 20260510053018 | 0 | 250 | 0.0 | 3.2 | 0.00 | 0.00 | 0.00 | 93 | 1014.4 |
| 20260510051516 | 0 | 325 | 1.6 | 9.7 | 0.00 | 0.00 | 0.00 | 93 | 1014.4 |
| 20260510050015 | 0 | 287 | 8.0 | 14.5 | 0.00 | 0.00 | 0.00 | 92 | 1014.4 |
| 20260510044511 | 1 | 300 | 4.8 | 14.5 | 0.00 | 0.00 | 0.00 | 93 | 1014.4 |
| 20260510043010 | 0 | 300 | 3.2 | 11.3 | 0.00 | 0.00 | 0.00 | 93 | 1014.6 |
| 20260510041507 | 0 | 294 | 1.6 | 6.4 | 0.00 | 0.00 | 0.00 | 92 | 1014.2 |
| 20260510040006 | 0 | 302 | 0.0 | 4.8 | 0.00 | 0.00 | 0.00 | 91 | 1014.1 |
| 20260510034504 | 1 | 311 | 1.6 | 4.8 | 0.00 | 0.00 | 0.00 | 90 | 1014.0 |
| 20260510033002 | 1 | 284 | 3.2 | 9.7 | 0.00 | 0.00 | 0.00 | 90 | 1014.0 |
| 20260510031609 | 1 | 335 | 1.6 | 19.3 | 0.00 | 0.00 | 0.00 | 88 | 1013.8 |
| 20260510030107 | 1 | 319 | 3.2 | 11.3 | 0.00 | 0.00 | 0.00 | 87 | 1014.1 |
| 20260510024600 | 1 | 294 | 3.2 | 6.4 | 0.00 | 0.00 | 0.00 | 87 | 1013.9 |
| 20260510023059 | 1 | 301 | 1.6 | 8.0 | 0.00 | 0.00 | 0.00 | 87 | 1013.7 |
| 20260510021558 | 2 | 311 | 3.2 | 9.7 | 0.00 | 0.00 | 0.00 | 86 | 1013.5 |
| 20260510020055 | 2 | 290 | 4.8 | 11.3 | 0.00 | 0.00 | 0.00 | 85 | 1013.4 |
| 20260510014552 | 2 | 336 | 3.2 | 9.7 | 0.00 | 0.00 | 0.00 | 85 | 1013.1 |
| 20260510013053 | 2 | 327 | 4.8 | 16.1 | 0.00 | 0.00 | 0.00 | 83 | 1012.7 |
| 20260510011548 | 3 | 316 | 9.7 | 32.2 | 0.00 | 0.00 | 0.00 | 78 | 1012.8 |
| 20260510010045 | 3 | 355 | 8.0 | 19.3 | 0.00 | 0.00 | 0.00 | 69 | 1011.9 |
| 20260510004545 | 3 | 315 | 3.2 | 12.9 | 0.00 | 0.00 | 0.00 | 73 | 1011.7 |
| 20260510003054 | 4 | 302 | 3.2 | 12.9 | 0.00 | 0.00 | 0.00 | 74 | 1011.6 |
| 20260510001544 | 4 | 340 | 3.2 | 8.0 | 0.00 | 0.00 | 0.00 | 77 | 1011.4 |
| 20260510000043 | 4 | 291 | 3.2 | 27.4 | 0.00 | 0.00 | 0.00 | 78 | 1011.6 |
| 20260509234557 | 5 | 321 | 6.4 | 19.3 | 0.00 | 0.00 | 0.00 | 63 | 1011.2 |
| 20260509233045 | 5 | 297 | 3.2 | 17.7 | 0.00 | 0.00 | 0.00 | 66 | 1011.0 |
| 20260509231557 | 5 | 350 | 6.4 | 22.5 | 0.00 | 0.00 | 0.00 | 68 | 1011.0 |
| 20260509230037 | 6 | 348 | 12.9 | 32.2 | 0.00 | 0.00 | 0.00 | 61 | 1011.0 |
| 20260509224534 | 7 | 302 | 6.4 | 16.1 | 0.00 | 0.00 | 0.00 | 52 | 1010.1 |
| 20260509223036 | 6 | 301 | 8.0 | 22.5 | 0.00 | 0.00 | 0.00 | 54 | 1010.0 |
| 20260509221532 | 7 | 323 | 6.4 | 16.1 | 0.00 | 0.00 | 0.00 | 52 | 1010.0 |
| 20260509220037 | 7 | 282 | 9.7 | 22.5 | 0.00 | 0.00 | 0.00 | 53 | 1010.0 |
| 20260509214533 | 7 | 298 | 17.7 | 33.8 | 0.00 | 0.00 | 0.00 | 51 | 1009.8 |
| 20260509213032 | 6 | 309 | 11.3 | 29.0 | 0.00 | 0.00 | 0.00 | 54 | 1009.7 |
| 20260509211528 | 6 | 282 | 11.3 | 25.7 | 0.00 | 0.00 | 0.00 | 56 | 1009.6 |
| 20260509210029 | 6 | 308 | 11.3 | 27.4 | 0.00 | 0.00 | 0.00 | 56 | 1009.5 |
| 20260509204527 | 6 | 282 | 8.0 | 22.5 | 0.00 | 0.00 | 0.00 | 59 | 1009.3 |
| 20260509203033 | 5 | 331 | 9.7 | 25.7 | 0.00 | 0.00 | 0.00 | 59 | 1009.2 |
| 20260509201521 | 6 | 331 | 11.3 | 24.1 | 0.00 | 0.00 | 0.00 | 59 | 1009.0 |
| 20260509200021 | 5 | 13 | 11.3 | 20.9 | 0.00 | 0.00 | 0.00 | 61 | 1009.0 |
| 20260509194521 | 5 | 355 | 11.3 | 25.7 | 0.00 | 0.00 | 0.00 | 60 | 1009.0 |
| 20260509193020 | 5 | 321 | 6.4 | 20.9 | 0.00 | 0.00 | 0.00 | 62 | 1008.6 |
| 20260509191517 | 5 | 281 | 8.0 | 19.3 | 0.00 | 0.00 | 0.00 | 62 | 1008.3 |
| 20260509190018 | 5 | 303 | 9.7 | 25.7 | 0.00 | 0.00 | 0.00 | 61 | 1007.9 |
| 20260509184526 | 6 | 274 | 9.7 | 25.7 | 0.00 | 0.00 | 0.00 | 60 | 1007.7 |
| 20260509183020 | 5 | 342 | 6.4 | 17.7 | 0.00 | 0.00 | 0.00 | 62 | 1007.7 |
| 20260509181516 | 5 | 331 | 9.7 | 27.4 | 0.00 | 0.00 | 0.00 | 61 | 1007.6 |
| 20260509180017 | 6 | 5 | 6.4 | 17.7 | 0.00 | 0.00 | 0.00 | 55 | 1007.3 |
| 20260509174507 | 5 | 325 | 11.3 | 25.7 | 0.00 | 0.00 | 0.00 | 56 | 1007.2 |
| 20260509173008 | 5 | 345 | 9.7 | 20.9 | 0.00 | 0.00 | 0.00 | 58 | 1007.1 |
| 20260509171503 | 5 | 298 | 8.0 | 24.1 | 0.00 | 0.00 | 0.00 | 58 | 1006.8 |
| 20260509170002 | 5 | 296 | 8.0 | 22.5 | 0.00 | 0.00 | 0.00 | 59 | 1006.7 |
| 20260509164502 | 5 | 321 | 6.4 | 22.5 | 0.00 | 0.00 | 0.00 | 61 | 1006.4 |
| 20260509163105 | 5 | 355 | 8.0 | 19.3 | 0.00 | 0.00 | 0.00 | 62 | 1006.1 |
| 20260509161559 | 4 | 305 | 8.0 | 25.7 | 0.00 | 0.00 | 0.00 | 64 | 1006.0 |
| 20260509160057 | 3 | 350 | 9.7 | 30.6 | 0.00 | 0.00 | 0.00 | 64 | 1005.8 |
| 20260509154607 | 4 | 12 | 16.1 | 27.4 | 0.00 | 0.00 | 0.00 | 64 | 1005.6 |
| 20260509153053 | 5 | 332 | 11.3 | 25.7 | 0.00 | 0.00 | 0.00 | 66 | 1005.6 |
| 20260509151553 | 4 | 328 | 8.0 | 25.7 | 0.00 | 0.00 | 0.00 | 68 | 1005.3 |
| 20260509150106 | 4 | 327 | 12.9 | 29.0 | 0.00 | 0.00 | 0.00 | 68 | 1005.1 |
| 20260509144553 | 4 | 322 | 9.7 | 29.0 | 0.00 | 0.00 | 0.00 | 69 | 1004.7 |
| 20260509143052 | 4 | 316 | 11.3 | 25.7 | 0.00 | 0.00 | 0.00 | 67 | 1004.5 |
| 20260509141544 | 4 | 348 | 11.3 | 27.4 | 0.00 | 0.00 | 0.00 | 67 | 1004.4 |
| 20260509140043 | 3 | 347 | 6.4 | 22.5 | 0.00 | 0.00 | 0.00 | 67 | 1004.3 |
| 20260509134540 | 3 | 305 | 12.9 | 29.0 | 0.00 | 0.00 | 0.00 | 65 | 1004.0 |
| 20260509133042 | 4 | 319 | 9.7 | 25.7 | 0.00 | 0.00 | 0.00 | 64 | 1003.8 |
| 20260509131535 | 3 | 340 | 9.7 | 30.6 | 0.00 | 0.00 | 0.00 | 65 | 1003.6 |